Location: Unspecified
(0.0000°N, 0.0000°E)
Time: 18:06:14
(UTC+00:00)

Vanguard 3 - Pass Details

Date: 07 February 2023
Orbit: 509 x 3249 km, 33.3° (Epoch: 20 March)

Event Time Altitude Azimuth Distance (km) Brightness Sun altitude
Rises 11:59:32 0° 208° (SSW) 2,957 10.2 74.3°
Maximum altitude 12:05:01 13° 150° (SSE) 1,570 9.1 74.5°
Drops below altitude 10° 12:06:46 10° 121° (ESE) 1,713 9.1 74.6°
Sets 12:10:00 0° 90° (E) 2,647 9.8 74.7°
